VKG9194 ENGM-LTBJ

Flight info

Callsign VKG9194
Flight time 3h 26m
Altitude 33000
Route OKSAT L996 GETPA L727 NEGIL DCT RUMAR DCT KELEL/N0445F350 DCT VERIG DCT OVDOT DCT NIKTI DCT LMO UN127 RIKSO
Aircraft A321/M-SDE2E3FGHIJ1RWXYZ/LB2

Departure

Time 2026-05-05 13:52
Airport Oslo-Gardermoen International Airport (ENGM)

Arrival

Time 2026-05-05 17:18
Airport Adnan Menderes International Airport (LTBJ)
Time Latitude Longitude Altitude Speed Heading
2026-05-05 13:09 60.19406 11.10833 683 ft 0 kts 196°
2026-05-05 13:41 60.19417 11.10840 684 ft 4 kts 196°
2026-05-05 13:41 60.19443 11.10854 684 ft 4 kts 196°
2026-05-05 13:42 60.19461 11.10867 681 ft 4 kts 226°
2026-05-05 13:42 60.19466 11.10905 680 ft 4 kts 286°
2026-05-05 13:42 60.19459 11.10955 680 ft 5 kts 286°
2026-05-05 13:42 60.19457 11.10964 680 ft 1 kts 286°
2026-05-05 13:45 60.19459 11.10951 683 ft 2 kts 286°
2026-05-05 13:45 60.19466 11.10902 680 ft 5 kts 286°
2026-05-05 13:46 60.19484 11.10827 686 ft 7 kts 322°
2026-05-05 13:46 60.19537 11.10840 684 ft 10 kts 59°
2026-05-05 13:46 60.19527 11.11003 686 ft 13 kts 108°
2026-05-05 13:46 60.19500 11.11187 686 ft 14 kts 105°
2026-05-05 13:47 60.19425 11.11287 688 ft 16 kts 195°
2026-05-05 13:47 60.19311 11.11219 687 ft 18 kts 196°
2026-05-05 13:47 60.19190 11.11148 684 ft 19 kts 196°
2026-05-05 13:47 60.19063 11.11073 682 ft 19 kts 196°
2026-05-05 13:48 60.18930 11.10996 687 ft 20 kts 196°
2026-05-05 13:48 60.18793 11.10917 686 ft 21 kts 196°
2026-05-05 13:48 60.18647 11.10832 688 ft 22 kts 196°
2026-05-05 13:48 60.18498 11.10747 687 ft 23 kts 195°
2026-05-05 13:49 60.18338 11.10657 681 ft 24 kts 196°
2026-05-05 13:49 60.18177 11.10564 685 ft 25 kts 196°
2026-05-05 13:49 60.18007 11.10466 684 ft 26 kts 196°
2026-05-05 13:49 60.17846 11.10372 683 ft 14 kts 196°
2026-05-05 13:50 60.17769 11.10341 683 ft 10 kts 167°
2026-05-05 13:50 60.17726 11.10452 683 ft 12 kts 106°
2026-05-05 13:50 60.17702 11.10623 685 ft 14 kts 105°
2026-05-05 13:50 60.17680 11.10784 685 ft 7 kts 105°
2026-05-05 13:51 60.17679 11.10828 682 ft 3 kts 58°
2026-05-05 13:51 60.17703 11.10851 685 ft 5 kts 17°
2026-05-05 13:51 60.17749 11.10879 685 ft 18 kts 17°
2026-05-05 13:51 60.18112 11.11085 687 ft 88 kts 16°
2026-05-05 13:52 60.18899 11.11540 686 ft 145 kts 15°
2026-05-05 13:52 60.19993 11.12168 904 ft 168 kts 13°
2026-05-05 13:52 60.21059 11.13065 1578 ft 173 kts 37°
2026-05-05 13:52 60.21614 11.15304 2096 ft 192 kts 85°
2026-05-05 13:53 60.21510 11.17956 2759 ft 186 kts 92°
2026-05-05 13:53 60.21596 11.20538 3196 ft 186 kts 76°
2026-05-05 13:53 60.21907 11.23063 3591 ft 186 kts 72°
2026-05-05 13:53 60.22219 11.25625 3929 ft 195 kts 74°
2026-05-05 13:54 60.22459 11.28390 4160 ft 207 kts 79°
2026-05-05 13:54 60.22652 11.31340 4425 ft 218 kts 78°
2026-05-05 13:54 60.22831 11.34444 4673 ft 233 kts 96°
2026-05-05 13:54 60.22156 11.37447 4847 ft 247 kts 136°
2026-05-05 13:55 60.20681 11.39297 5061 ft 259 kts 164°
2026-05-05 13:55 60.18906 11.40326 5451 ft 270 kts 168°
2026-05-05 13:55 60.17075 11.41341 6042 ft 275 kts 167°
2026-05-05 13:55 60.15226 11.42437 6677 ft 278 kts 166°
2026-05-05 13:56 60.13369 11.43595 7326 ft 280 kts 165°
2026-05-05 13:56 60.11509 11.44787 7966 ft 282 kts 165°
2026-05-05 13:56 60.09640 11.46004 8580 ft 284 kts 165°
2026-05-05 13:56 60.07752 11.47245 9204 ft 286 kts 165°
2026-05-05 13:57 60.05854 11.48499 9828 ft 289 kts 165°
2026-05-05 13:57 60.03921 11.49773 10223 ft 298 kts 165°
2026-05-05 13:57 60.01910 11.51096 10465 ft 312 kts 165°
2026-05-05 13:57 59.99800 11.52483 10681 ft 327 kts 165°
2026-05-05 13:58 59.97592 11.53934 10885 ft 341 kts 165°
2026-05-05 13:58 59.95296 11.55445 11116 ft 353 kts 164°
2026-05-05 13:58 59.92934 11.57001 11481 ft 361 kts 165°
2026-05-05 13:58 59.90532 11.58582 11943 ft 366 kts 165°
2026-05-05 13:59 59.85644 11.61789 12926 ft 374 kts 166°
2026-05-05 13:59 59.83161 11.63412 13399 ft 378 kts 166°
2026-05-05 14:00 59.78119 11.66701 14238 ft 384 kts 167°
2026-05-05 14:00 59.75568 11.68362 14692 ft 387 kts 167°
2026-05-05 14:00 59.73009 11.70027 15130 ft 389 kts 168°
2026-05-05 14:00 59.70430 11.71702 15563 ft 390 kts 168°
2026-05-05 14:01 59.67844 11.73376 15986 ft 392 kts 169°
2026-05-05 14:01 59.65243 11.75058 16410 ft 394 kts 169°
2026-05-05 14:01 59.62634 11.76747 16748 ft 396 kts 171°
2026-05-05 14:01 59.60001 11.78442 17104 ft 399 kts 172°
2026-05-05 14:02 59.57354 11.80142 17466 ft 401 kts 173°
2026-05-05 14:02 59.54698 11.81847 17897 ft 402 kts 173°
2026-05-05 14:02 59.52035 11.83555 18292 ft 403 kts 174°
2026-05-05 14:02 59.49397 11.85245 18631 ft 405 kts 174°
2026-05-05 14:03 59.46712 11.86963 18953 ft 406 kts 174°
2026-05-05 14:03 59.44016 11.88685 19288 ft 408 kts 174°
2026-05-05 14:03 59.41312 11.90409 19612 ft 410 kts 173°
2026-05-05 14:03 59.38640 11.92648 19933 ft 426 kts 163°
2026-05-05 14:04 59.36034 11.95491 20253 ft 431 kts 161°
2026-05-05 14:04 59.33432 11.98422 20506 ft 432 kts 161°
2026-05-05 14:04 59.30823 12.01320 20890 ft 430 kts 161°
2026-05-05 14:04 59.28207 12.04174 21236 ft 431 kts 161°
2026-05-05 14:05 59.25581 12.07010 21548 ft 432 kts 161°
2026-05-05 14:05 59.22939 12.09849 21859 ft 434 kts 161°
2026-05-05 14:05 59.20293 12.12688 22147 ft 435 kts 161°
2026-05-05 14:05 59.17635 12.15533 22431 ft 437 kts 161°
2026-05-05 14:06 59.14963 12.18392 22718 ft 439 kts 161°
2026-05-05 14:06 59.12278 12.21257 23007 ft 440 kts 161°
2026-05-05 14:06 59.09588 12.24125 23289 ft 442 kts 161°
2026-05-05 14:06 59.06890 12.26996 23548 ft 443 kts 161°
2026-05-05 14:07 59.04180 12.29875 23772 ft 445 kts 161°
2026-05-05 14:07 59.01456 12.32764 23975 ft 446 kts 161°
2026-05-05 14:07 58.98731 12.35648 24205 ft 446 kts 161°
2026-05-05 14:07 58.96008 12.38524 24445 ft 446 kts 161°
2026-05-05 14:08 58.93277 12.41402 24661 ft 447 kts 161°
2026-05-05 14:08 58.90539 12.44284 24860 ft 449 kts 161°
2026-05-05 14:08 58.87788 12.47174 25072 ft 450 kts 161°
2026-05-05 14:08 58.85037 12.50057 25269 ft 451 kts 161°
2026-05-05 14:09 58.82271 12.52953 25468 ft 453 kts 161°
2026-05-05 14:09 58.79500 12.55846 25674 ft 454 kts 161°
2026-05-05 14:09 58.76718 12.58746 25850 ft 455 kts 161°
2026-05-05 14:09 58.73928 12.61649 26052 ft 456 kts 161°
2026-05-05 14:10 58.71129 12.64559 26226 ft 458 kts 161°
2026-05-05 14:10 58.68326 12.67464 26343 ft 458 kts 161°
2026-05-05 14:10 58.65517 12.70372 26555 ft 459 kts 161°
2026-05-05 14:10 58.62706 12.73277 26741 ft 459 kts 161°
2026-05-05 14:11 58.59886 12.76184 26913 ft 460 kts 161°
2026-05-05 14:11 58.57059 12.79093 27087 ft 462 kts 161°
2026-05-05 14:11 58.54230 12.81999 27257 ft 463 kts 161°
2026-05-05 14:11 58.51387 12.84915 27428 ft 464 kts 161°
2026-05-05 14:12 58.48543 12.87828 27591 ft 465 kts 161°
2026-05-05 14:12 58.45688 12.90747 27764 ft 466 kts 161°
2026-05-05 14:12 58.42827 12.93666 27928 ft 467 kts 161°
2026-05-05 14:12 58.39959 12.96588 28141 ft 468 kts 161°
2026-05-05 14:13 58.37089 12.99506 28375 ft 467 kts 161°
2026-05-05 14:13 58.34222 13.02413 28600 ft 466 kts 161°
2026-05-05 14:13 58.31357 13.05313 28840 ft 467 kts 161°
2026-05-05 14:13 58.28497 13.08206 29110 ft 466 kts 161°
2026-05-05 14:14 58.25638 13.11091 29360 ft 465 kts 161°
2026-05-05 14:14 58.22785 13.13960 29629 ft 464 kts 161°
2026-05-05 14:14 58.19933 13.16821 29879 ft 463 kts 161°
2026-05-05 14:14 58.17081 13.19684 30096 ft 463 kts 161°
2026-05-05 14:15 58.14241 13.22528 30272 ft 462 kts 161°
2026-05-05 14:15 58.11398 13.25365 30464 ft 462 kts 161°
2026-05-05 14:15 58.08591 13.28165 30638 ft 462 kts 161°
2026-05-05 14:15 58.05713 13.31028 30831 ft 461 kts 161°
2026-05-05 14:16 58.02914 13.33809 31004 ft 461 kts 161°
2026-05-05 14:16 58.00039 13.36662 31178 ft 461 kts 161°
2026-05-05 14:16 57.97241 13.39436 31356 ft 460 kts 161°
2026-05-05 14:16 57.94406 13.42237 31536 ft 460 kts 161°
2026-05-05 14:17 57.91571 13.45035 31717 ft 460 kts 161°
2026-05-05 14:17 57.88742 13.47823 31897 ft 459 kts 161°
2026-05-05 14:17 57.85907 13.50613 32051 ft 459 kts 161°
2026-05-05 14:17 57.83081 13.53387 32258 ft 458 kts 161°
2026-05-05 14:18 57.80263 13.56149 32443 ft 457 kts 161°
2026-05-05 14:18 57.77440 13.58909 32614 ft 457 kts 161°
2026-05-05 14:18 57.74627 13.61654 32760 ft 456 kts 161°
2026-05-05 14:18 57.71813 13.64397 32883 ft 456 kts 161°
2026-05-05 14:19 57.66192 13.69859 32923 ft 455 kts 161°
2026-05-05 14:19 57.60580 13.75297 32896 ft 455 kts 161°
2026-05-05 14:20 57.54961 13.80719 32897 ft 454 kts 161°
2026-05-05 14:20 57.49342 13.86123 32896 ft 454 kts 161°
2026-05-05 14:21 57.43721 13.91509 32877 ft 454 kts 161°
2026-05-05 14:21 57.38129 13.96857 32877 ft 451 kts 160°
2026-05-05 14:22 57.32537 14.02181 32890 ft 452 kts 160°
2026-05-05 14:22 57.26944 14.07485 32878 ft 452 kts 160°
2026-05-05 14:23 57.21351 14.12773 32876 ft 452 kts 160°
2026-05-05 14:23 57.15752 14.18043 32880 ft 452 kts 161°
2026-05-05 14:24 57.10153 14.23299 32839 ft 451 kts 160°
2026-05-05 14:24 57.04565 14.28530 32878 ft 451 kts 160°
2026-05-05 14:25 56.98970 14.33748 32886 ft 451 kts 160°
2026-05-05 14:25 56.93378 14.38946 32879 ft 450 kts 160°
2026-05-05 14:26 56.87787 14.44123 32880 ft 451 kts 160°
2026-05-05 14:26 56.82189 14.49291 32878 ft 450 kts 160°
2026-05-05 14:27 56.76594 14.54443 32860 ft 450 kts 159°
2026-05-05 14:27 56.71003 14.59565 32873 ft 450 kts 160°
2026-05-05 14:28 56.65412 14.64670 32875 ft 449 kts 159°
2026-05-05 14:28 56.59829 14.69761 32875 ft 448 kts 159°
2026-05-05 14:29 56.55190 14.73972 32876 ft 449 kts 160°
2026-05-05 14:29 56.49612 14.79023 32846 ft 448 kts 160°
2026-05-05 14:30 56.44030 14.84059 32871 ft 448 kts 159°
2026-05-05 14:30 56.38449 14.89080 32875 ft 448 kts 159°
2026-05-05 14:31 56.32863 14.94087 32876 ft 449 kts 159°
2026-05-05 14:31 56.27275 14.99075 32875 ft 448 kts 159°
2026-05-05 14:32 56.21686 15.04052 32876 ft 448 kts 159°
2026-05-05 14:32 56.16111 15.09000 32864 ft 446 kts 158°
2026-05-05 14:33 56.10547 15.13924 32882 ft 446 kts 159°
2026-05-05 14:33 56.04978 15.18837 32884 ft 446 kts 159°
2026-05-05 14:34 55.99403 15.23742 32890 ft 446 kts 159°
2026-05-05 14:34 55.93832 15.28621 32891 ft 446 kts 159°
2026-05-05 14:35 55.88263 15.33483 32875 ft 446 kts 159°
2026-05-05 14:35 55.82686 15.38336 32876 ft 445 kts 159°
2026-05-05 14:36 55.77151 15.43140 32891 ft 441 kts 159°
2026-05-05 14:36 55.71628 15.47918 32898 ft 442 kts 159°
2026-05-05 14:37 55.66098 15.52686 32901 ft 442 kts 159°
2026-05-05 14:37 55.60571 15.57439 32902 ft 442 kts 159°
2026-05-05 14:38 55.55047 15.62172 32894 ft 441 kts 160°
2026-05-05 14:38 55.49538 15.66878 32908 ft 440 kts 160°
2026-05-05 14:39 55.44028 15.71570 32910 ft 440 kts 160°
2026-05-05 14:39 55.38522 15.76242 32906 ft 438 kts 160°
2026-05-05 14:40 55.33025 15.80895 32907 ft 439 kts 160°
2026-05-05 14:40 55.27528 15.85533 32909 ft 438 kts 160°
2026-05-05 14:41 55.22027 15.90157 32909 ft 439 kts 160°
2026-05-05 14:41 55.16520 15.94774 32912 ft 439 kts 160°
2026-05-05 14:42 55.11010 15.99381 32912 ft 439 kts 160°
2026-05-05 14:42 55.05503 16.03968 32913 ft 439 kts 160°
2026-05-05 14:43 54.99989 16.08550 32916 ft 439 kts 160°
2026-05-05 14:43 54.94480 16.13116 32917 ft 439 kts 160°
2026-05-05 14:44 54.88968 16.17667 32913 ft 438 kts 160°
2026-05-05 14:44 54.83458 16.22203 32914 ft 438 kts 160°
2026-05-05 14:45 54.77950 16.26724 32918 ft 438 kts 161°
2026-05-05 14:45 54.72440 16.31235 32917 ft 438 kts 161°
2026-05-05 14:46 54.66930 16.35726 32897 ft 438 kts 161°
2026-05-05 14:46 54.61404 16.40218 32911 ft 439 kts 162°
2026-05-05 14:47 54.55872 16.44705 32918 ft 439 kts 162°
2026-05-05 14:47 54.50344 16.49179 32916 ft 439 kts 162°
2026-05-05 14:48 54.44810 16.53638 32908 ft 440 kts 162°
2026-05-05 14:48 54.39272 16.58082 32901 ft 439 kts 162°
2026-05-05 14:49 54.33731 16.62523 32891 ft 440 kts 162°
2026-05-05 14:49 54.28171 16.66965 32902 ft 441 kts 162°
2026-05-05 14:50 54.22611 16.71395 32892 ft 440 kts 162°
2026-05-05 14:50 54.17070 16.75792 32897 ft 439 kts 162°
2026-05-05 14:51 54.11533 16.80175 32897 ft 439 kts 162°
2026-05-05 14:51 54.06019 16.84525 32869 ft 440 kts 162°
2026-05-05 14:52 54.00462 16.88900 32887 ft 441 kts 162°
2026-05-05 14:52 53.94893 16.93271 32885 ft 440 kts 162°
2026-05-05 14:53 53.89330 16.97621 32882 ft 440 kts 162°
2026-05-05 14:53 53.83760 17.01968 32872 ft 441 kts 162°
2026-05-05 14:54 53.78176 17.06311 32844 ft 442 kts 162°
2026-05-05 14:54 53.72572 17.10655 32871 ft 444 kts 162°
2026-05-05 14:55 53.66950 17.15000 32882 ft 444 kts 162°
2026-05-05 14:55 53.61326 17.19338 32867 ft 445 kts 162°
2026-05-05 14:56 53.55700 17.23667 32871 ft 444 kts 162°
2026-05-05 14:56 53.50075 17.27975 32861 ft 444 kts 163°
2026-05-05 14:57 53.44431 17.32282 32854 ft 448 kts 162°
2026-05-05 14:57 53.38760 17.36604 32860 ft 447 kts 162°
2026-05-05 14:58 53.33103 17.40906 32858 ft 447 kts 162°
2026-05-05 14:58 53.27438 17.45197 32858 ft 447 kts 162°
2026-05-05 14:59 53.21774 17.49473 32853 ft 447 kts 162°
2026-05-05 14:59 53.16102 17.53744 32844 ft 448 kts 162°
2026-05-05 15:00 53.11379 17.57291 32850 ft 448 kts 162°
2026-05-05 15:00 53.04727 17.62275 32845 ft 449 kts 162°
2026-05-05 15:01 52.99055 17.66509 32844 ft 449 kts 162°
2026-05-05 15:01 52.93314 17.70779 32844 ft 450 kts 162°
2026-05-05 15:02 52.87646 17.74986 32835 ft 448 kts 161°
2026-05-05 15:02 52.81962 17.79194 32841 ft 448 kts 161°
2026-05-05 15:03 52.76271 17.83392 32834 ft 448 kts 161°
2026-05-05 15:03 52.70582 17.87577 32831 ft 448 kts 161°
2026-05-05 15:04 52.64890 17.91756 32837 ft 448 kts 161°
2026-05-05 15:04 52.59192 17.95925 32813 ft 448 kts 161°
2026-05-05 15:05 52.50658 18.02146 32814 ft 447 kts 161°
2026-05-05 15:06 52.44965 18.06282 32813 ft 447 kts 161°
2026-05-05 15:06 52.39276 18.10400 32815 ft 447 kts 161°
2026-05-05 15:07 52.33580 18.14515 32781 ft 447 kts 161°
2026-05-05 15:07 52.27903 18.18604 32795 ft 445 kts 160°
2026-05-05 15:08 52.22232 18.22676 32799 ft 445 kts 160°
2026-05-05 15:08 52.16563 18.26735 32792 ft 445 kts 161°
2026-05-05 15:09 52.10885 18.30792 32786 ft 445 kts 161°
2026-05-05 15:09 52.05211 18.34832 32775 ft 445 kts 161°
2026-05-05 15:10 51.99537 18.38864 32769 ft 445 kts 161°
2026-05-05 15:10 51.93858 18.42886 32767 ft 445 kts 160°
2026-05-05 15:11 51.88193 18.46888 32760 ft 444 kts 160°
2026-05-05 15:11 51.82518 18.50882 32760 ft 445 kts 160°
2026-05-05 15:12 51.76842 18.54868 32754 ft 446 kts 160°
2026-05-05 15:12 51.71153 18.58852 32751 ft 445 kts 160°
2026-05-05 15:13 51.65470 18.62825 32757 ft 445 kts 160°
2026-05-05 15:13 51.60744 18.66120 32748 ft 445 kts 160°
2026-05-05 15:14 51.55063 18.70068 32844 ft 445 kts 160°
2026-05-05 15:14 51.52219 18.72042 33015 ft 445 kts 160°
2026-05-05 15:14 51.49379 18.74010 33171 ft 445 kts 160°
2026-05-05 15:14 51.46535 18.75977 33328 ft 445 kts 160°
2026-05-05 15:15 51.43697 18.77937 33479 ft 445 kts 160°
2026-05-05 15:15 51.40849 18.79902 33634 ft 445 kts 160°
2026-05-05 15:15 51.38007 18.81861 33768 ft 445 kts 160°
2026-05-05 15:15 51.35161 18.83819 33900 ft 445 kts 160°
2026-05-05 15:16 51.32314 18.85776 34027 ft 445 kts 160°
2026-05-05 15:16 51.29467 18.87730 34163 ft 445 kts 160°
2026-05-05 15:16 51.26619 18.89679 34276 ft 445 kts 160°
2026-05-05 15:16 51.23771 18.91626 34385 ft 445 kts 160°
2026-05-05 15:17 51.20922 18.93571 34490 ft 445 kts 160°
2026-05-05 15:17 51.15222 18.97454 34683 ft 446 kts 160°
2026-05-05 15:18 51.09511 19.01339 34784 ft 447 kts 160°
2026-05-05 15:18 51.03796 19.05218 34768 ft 447 kts 160°
2026-05-05 15:19 50.98082 19.09086 34769 ft 446 kts 160°
2026-05-05 15:19 50.92366 19.12947 34763 ft 446 kts 160°
2026-05-05 15:20 50.86664 19.16783 34766 ft 445 kts 160°
2026-05-05 15:20 50.80968 19.20606 34772 ft 444 kts 160°
2026-05-05 15:21 50.75271 19.24416 34779 ft 445 kts 160°
2026-05-05 15:21 50.69607 19.28190 34784 ft 445 kts 160°
2026-05-05 15:22 50.63873 19.32003 34783 ft 445 kts 160°
2026-05-05 15:22 50.58207 19.35768 34786 ft 444 kts 160°
2026-05-05 15:23 50.52509 19.39541 34786 ft 444 kts 160°
2026-05-05 15:23 50.46817 19.43297 34787 ft 443 kts 160°
2026-05-05 15:24 50.41135 19.47045 34794 ft 443 kts 160°
2026-05-05 15:24 50.35456 19.50774 34794 ft 441 kts 160°
2026-05-05 15:25 50.29784 19.54489 34806 ft 442 kts 160°
2026-05-05 15:25 50.24117 19.58197 34807 ft 442 kts 160°
2026-05-05 15:26 50.18434 19.61901 34815 ft 442 kts 160°
2026-05-05 15:26 50.12770 19.65584 34814 ft 439 kts 160°
2026-05-05 15:27 50.07122 19.69249 34818 ft 440 kts 160°
2026-05-05 15:27 50.01468 19.72914 34820 ft 440 kts 160°
2026-05-05 15:28 49.95816 19.76565 34819 ft 440 kts 160°
2026-05-05 15:28 49.90157 19.80211 34838 ft 440 kts 160°
2026-05-05 15:29 49.84500 19.83833 34842 ft 440 kts 161°
2026-05-05 15:29 49.78837 19.87454 34843 ft 439 kts 161°
2026-05-05 15:30 49.73199 19.91057 34852 ft 438 kts 161°
2026-05-05 15:30 49.67565 19.94650 34860 ft 438 kts 161°
2026-05-05 15:31 49.61925 19.98236 34863 ft 438 kts 160°
2026-05-05 15:31 49.56274 20.01818 34873 ft 440 kts 160°
2026-05-05 15:32 49.50606 20.05397 34878 ft 440 kts 160°
2026-05-05 15:32 49.44944 20.08974 34877 ft 440 kts 160°
2026-05-05 15:33 49.39289 20.12537 34882 ft 439 kts 160°
2026-05-05 15:33 49.33626 20.16101 34898 ft 440 kts 160°
2026-05-05 15:34 49.28053 20.20008 34898 ft 442 kts 156°
2026-05-05 15:34 49.22550 20.24195 34906 ft 441 kts 156°
2026-05-05 15:35 49.17050 20.28363 34933 ft 441 kts 156°
2026-05-05 15:35 49.11537 20.32494 34932 ft 441 kts 157°
2026-05-05 15:36 49.06033 20.36627 34933 ft 441 kts 157°
2026-05-05 15:36 49.00512 20.40762 34933 ft 443 kts 156°
2026-05-05 15:37 48.94975 20.44898 34929 ft 444 kts 157°
2026-05-05 15:37 48.89428 20.49031 34927 ft 444 kts 157°
2026-05-05 15:38 48.83890 20.53154 34925 ft 443 kts 156°
2026-05-05 15:38 48.78363 20.57252 34913 ft 441 kts 156°
2026-05-05 15:39 48.72845 20.61336 34919 ft 442 kts 157°
2026-05-05 15:39 48.67311 20.65418 34917 ft 442 kts 156°
2026-05-05 15:40 48.61777 20.69495 34913 ft 442 kts 156°
2026-05-05 15:40 48.56248 20.73553 34914 ft 442 kts 156°
2026-05-05 15:41 48.50715 20.77606 34899 ft 443 kts 156°
2026-05-05 15:41 48.45130 20.81683 34908 ft 448 kts 156°
2026-05-05 15:42 48.39518 20.85764 34910 ft 448 kts 156°
2026-05-05 15:42 48.33910 20.89840 34912 ft 448 kts 156°
2026-05-05 15:43 48.28299 20.93908 34910 ft 447 kts 156°
2026-05-05 15:43 48.22707 20.97958 34906 ft 446 kts 156°
2026-05-05 15:44 48.17094 21.02004 34911 ft 450 kts 156°
2026-05-05 15:44 48.11447 21.06074 34910 ft 450 kts 156°
2026-05-05 15:45 48.05803 21.10126 34909 ft 450 kts 156°
2026-05-05 15:45 48.00159 21.14169 34911 ft 450 kts 156°
2026-05-05 15:46 47.94522 21.18193 34910 ft 449 kts 156°
2026-05-05 15:46 47.88896 21.22208 34911 ft 448 kts 156°
2026-05-05 15:47 47.83304 21.26185 34915 ft 448 kts 156°
2026-05-05 15:47 47.77671 21.30183 34914 ft 448 kts 156°
2026-05-05 15:48 47.72039 21.34165 34913 ft 448 kts 156°
2026-05-05 15:48 47.66409 21.38142 34914 ft 448 kts 156°
2026-05-05 15:49 47.60776 21.42116 34913 ft 448 kts 156°
2026-05-05 15:49 47.55130 21.46079 34914 ft 451 kts 156°
2026-05-05 15:50 47.49458 21.50063 34915 ft 451 kts 156°
2026-05-05 15:50 47.43801 21.54039 34917 ft 449 kts 156°
2026-05-05 15:51 47.38152 21.57980 34933 ft 449 kts 156°
2026-05-05 15:51 47.32500 21.61910 34931 ft 449 kts 156°
2026-05-05 15:52 47.26841 21.65820 34931 ft 451 kts 156°
2026-05-05 15:52 47.21158 21.69752 34922 ft 452 kts 156°
2026-05-05 15:53 47.15401 21.73404 34923 ft 450 kts 162°
2026-05-05 15:53 47.09467 21.76361 34933 ft 450 kts 162°
2026-05-05 15:54 47.03539 21.79300 34937 ft 450 kts 162°
2026-05-05 15:54 46.97602 21.82251 34937 ft 451 kts 162°
2026-05-05 15:55 46.91657 21.85197 34934 ft 451 kts 162°
2026-05-05 15:55 46.85710 21.88137 34932 ft 451 kts 162°
2026-05-05 15:56 46.79776 21.91063 34934 ft 450 kts 162°
2026-05-05 15:56 46.73838 21.93983 34934 ft 451 kts 162°
2026-05-05 15:57 46.68899 21.96406 34940 ft 450 kts 162°
2026-05-05 15:57 46.62960 21.99316 34942 ft 451 kts 162°
2026-05-05 15:58 46.56997 22.02233 34946 ft 453 kts 162°
2026-05-05 15:58 46.51024 22.05147 34946 ft 453 kts 162°
2026-05-05 15:59 46.45053 22.08053 34951 ft 453 kts 162°
2026-05-05 15:59 46.39082 22.10946 34953 ft 452 kts 162°
2026-05-05 16:00 46.33111 22.13840 34951 ft 453 kts 162°
2026-05-05 16:00 46.27126 22.16733 34962 ft 455 kts 162°
2026-05-05 16:01 46.21110 22.19632 34956 ft 456 kts 162°
2026-05-05 16:01 46.15099 22.22524 34962 ft 455 kts 162°
2026-05-05 16:02 46.09093 22.25407 34957 ft 455 kts 162°
2026-05-05 16:02 46.03086 22.28283 34961 ft 455 kts 162°
2026-05-05 16:03 45.97079 22.31153 34961 ft 455 kts 162°
2026-05-05 16:03 45.91044 22.34031 34969 ft 458 kts 162°
2026-05-05 16:04 45.84970 22.36782 34970 ft 458 kts 163°
2026-05-05 16:04 45.78874 22.39442 34967 ft 458 kts 163°
2026-05-05 16:05 45.72785 22.42105 34969 ft 457 kts 163°
2026-05-05 16:05 45.66701 22.44766 34972 ft 457 kts 163°
2026-05-05 16:06 45.60605 22.47427 34987 ft 460 kts 163°
2026-05-05 16:06 45.54469 22.50097 34986 ft 461 kts 163°
2026-05-05 16:07 45.48346 22.52756 34988 ft 460 kts 163°
2026-05-05 16:07 45.42215 22.55412 34995 ft 460 kts 163°
2026-05-05 16:08 45.36129 22.58045 34996 ft 460 kts 163°
2026-05-05 16:08 45.30003 22.60687 34993 ft 461 kts 163°
2026-05-05 16:09 45.23841 22.63339 35003 ft 463 kts 163°
2026-05-05 16:09 45.17676 22.65988 34999 ft 463 kts 163°
2026-05-05 16:10 45.11508 22.68630 34996 ft 463 kts 163°
2026-05-05 16:10 45.05340 22.71267 34987 ft 463 kts 164°
2026-05-05 16:11 44.99180 22.73894 34989 ft 462 kts 164°
2026-05-05 16:12 44.86792 22.79163 34976 ft 466 kts 163°
2026-05-05 16:13 44.71291 22.85711 34971 ft 465 kts 164°
2026-05-05 16:13 44.65098 22.88333 34970 ft 465 kts 164°
2026-05-05 16:14 44.52717 22.93532 34966 ft 464 kts 164°
2026-05-05 16:15 44.40348 22.98699 34967 ft 464 kts 164°
2026-05-05 16:16 44.27940 23.03848 34973 ft 468 kts 164°
2026-05-05 16:17 44.18577 23.07726 34972 ft 468 kts 164°
2026-05-05 16:18 44.09213 23.11599 34970 ft 468 kts 164°
2026-05-05 16:19 43.99850 23.15457 34980 ft 468 kts 164°
2026-05-05 16:19 43.90454 23.19308 34972 ft 470 kts 164°
2026-05-05 16:20 43.77907 23.24436 34980 ft 470 kts 164°
2026-05-05 16:22 43.62195 23.30827 34987 ft 471 kts 164°
2026-05-05 16:23 43.49609 23.35928 34977 ft 472 kts 164°
2026-05-05 16:23 43.40155 23.39738 34993 ft 472 kts 164°
2026-05-05 16:24 43.33841 23.42277 35003 ft 473 kts 164°
2026-05-05 16:25 43.24353 23.46084 35009 ft 474 kts 164°
2026-05-05 16:25 43.14856 23.49885 35016 ft 474 kts 165°
2026-05-05 16:26 43.02168 23.54941 35026 ft 476 kts 165°
2026-05-05 16:27 42.95807 23.57465 35030 ft 476 kts 165°
2026-05-05 16:27 42.89444 23.59986 35032 ft 476 kts 165°
2026-05-05 16:28 42.83085 23.62499 35036 ft 476 kts 165°
2026-05-05 16:28 42.76721 23.65012 35040 ft 476 kts 165°
2026-05-05 16:29 42.70343 23.67523 35040 ft 477 kts 165°
2026-05-05 16:29 42.63961 23.70030 35037 ft 478 kts 165°
2026-05-05 16:30 42.57573 23.72532 35035 ft 478 kts 165°
2026-05-05 16:30 42.51192 23.75029 35040 ft 477 kts 165°
2026-05-05 16:31 42.44853 23.77503 35041 ft 478 kts 165°
2026-05-05 16:31 42.38460 23.79993 35042 ft 479 kts 165°
2026-05-05 16:32 42.32057 23.82480 35039 ft 479 kts 165°
2026-05-05 16:32 42.25650 23.84967 35038 ft 479 kts 165°
2026-05-05 16:33 42.19246 23.87447 35038 ft 478 kts 165°
2026-05-05 16:33 42.12848 23.89916 35034 ft 479 kts 165°
2026-05-05 16:34 42.06453 23.92379 35033 ft 478 kts 165°
2026-05-05 16:34 42.00047 23.94845 35039 ft 480 kts 165°
2026-05-05 16:35 41.93610 23.97315 35042 ft 481 kts 165°
2026-05-05 16:35 41.87177 23.99777 35040 ft 481 kts 165°
2026-05-05 16:36 41.80736 24.02236 35032 ft 481 kts 165°
2026-05-05 16:36 41.74304 24.04689 35037 ft 481 kts 166°
2026-05-05 16:37 41.67870 24.07135 35048 ft 480 kts 166°
2026-05-05 16:37 41.61428 24.09585 35022 ft 482 kts 166°
2026-05-05 16:38 41.55003 24.12118 35026 ft 481 kts 160°
2026-05-05 16:38 41.48989 24.16067 35027 ft 483 kts 152°
2026-05-05 16:39 41.43064 24.20290 35027 ft 482 kts 152°
2026-05-05 16:39 41.37132 24.24467 35028 ft 483 kts 153°
2026-05-05 16:40 41.31175 24.28635 35024 ft 484 kts 153°
2026-05-05 16:40 41.25212 24.32798 35026 ft 484 kts 153°
2026-05-05 16:41 41.20416 24.36620 35022 ft 484 kts 145°
2026-05-05 16:41 41.14904 24.41738 35042 ft 484 kts 144°
2026-05-05 16:42 41.09335 24.46827 35045 ft 487 kts 145°
2026-05-05 16:42 41.03738 24.51889 35046 ft 487 kts 145°
2026-05-05 16:43 40.98136 24.56945 35048 ft 487 kts 145°
2026-05-05 16:43 40.92533 24.61993 35055 ft 488 kts 145°
2026-05-05 16:44 40.86913 24.67046 35053 ft 489 kts 146°
2026-05-05 16:44 40.81284 24.72098 35050 ft 489 kts 146°
2026-05-05 16:45 40.75644 24.77149 35037 ft 490 kts 146°
2026-05-05 16:45 40.70004 24.82187 35035 ft 490 kts 146°
2026-05-05 16:46 40.64358 24.87216 35033 ft 490 kts 146°
2026-05-05 16:46 40.58703 24.92243 35035 ft 491 kts 146°
2026-05-05 16:47 40.53088 24.97228 35034 ft 491 kts 146°
2026-05-05 16:47 40.47429 25.02241 35046 ft 491 kts 146°
2026-05-05 16:48 40.41760 25.07256 35036 ft 491 kts 146°
2026-05-05 16:48 40.36088 25.12260 35035 ft 492 kts 146°
2026-05-05 16:49 40.30404 25.17270 35037 ft 492 kts 146°
2026-05-05 16:49 40.24713 25.22271 35038 ft 492 kts 146°
2026-05-05 16:50 40.19027 25.27260 35041 ft 492 kts 146°
2026-05-05 16:50 40.13342 25.32235 35038 ft 492 kts 146°
2026-05-05 16:51 40.07648 25.37208 35042 ft 493 kts 146°
2026-05-05 16:51 40.01949 25.42176 35041 ft 493 kts 146°
2026-05-05 16:52 39.96246 25.47135 35045 ft 493 kts 146°
2026-05-05 16:52 39.90541 25.52087 35046 ft 493 kts 146°
2026-05-05 16:53 39.84838 25.57030 35046 ft 492 kts 146°
2026-05-05 16:53 39.79131 25.61962 35047 ft 492 kts 146°
2026-05-05 16:54 39.73420 25.66886 35053 ft 492 kts 146°
2026-05-05 16:54 39.67720 25.71796 35048 ft 492 kts 146°
2026-05-05 16:55 39.62012 25.76704 35044 ft 492 kts 146°
2026-05-05 16:55 39.56295 25.81605 35048 ft 493 kts 146°
2026-05-05 16:56 39.50574 25.86501 35047 ft 493 kts 146°
2026-05-05 16:56 39.47719 25.88940 34814 ft 492 kts 146°
2026-05-05 16:56 39.44852 25.91387 34492 ft 494 kts 146°
2026-05-05 16:57 39.41983 25.93833 33982 ft 493 kts 146°
2026-05-05 16:57 39.39116 25.96278 33314 ft 494 kts 146°
2026-05-05 16:57 39.36253 25.98715 32726 ft 492 kts 146°
2026-05-05 16:57 39.33397 26.01142 32157 ft 491 kts 146°
2026-05-05 16:58 39.30549 26.03561 31580 ft 490 kts 146°
2026-05-05 16:58 39.27708 26.05972 31025 ft 488 kts 146°
2026-05-05 16:58 39.24867 26.08380 30468 ft 488 kts 146°
2026-05-05 16:58 39.22033 26.10780 29883 ft 487 kts 146°
2026-05-05 16:59 39.19210 26.13169 29263 ft 485 kts 146°
2026-05-05 16:59 39.16397 26.15548 28679 ft 481 kts 146°
2026-05-05 16:59 39.13614 26.17899 28150 ft 477 kts 146°
2026-05-05 16:59 39.10855 26.20227 27639 ft 472 kts 146°
2026-05-05 17:00 39.08109 26.22541 27097 ft 470 kts 146°
2026-05-05 17:00 39.05386 26.24834 26550 ft 468 kts 146°
2026-05-05 17:00 39.02672 26.27118 26032 ft 464 kts 146°
2026-05-05 17:00 38.99979 26.29379 25502 ft 460 kts 146°
2026-05-05 17:01 38.97313 26.31618 25046 ft 455 kts 146°
2026-05-05 17:01 38.94672 26.33832 24544 ft 451 kts 146°
2026-05-05 17:01 38.92062 26.36018 24150 ft 443 kts 146°
2026-05-05 17:01 38.89525 26.38143 24036 ft 428 kts 146°
2026-05-05 17:02 38.87065 26.40202 24000 ft 419 kts 146°
2026-05-05 17:02 38.84612 26.42257 24017 ft 421 kts 146°
2026-05-05 17:02 38.82261 26.44486 24028 ft 421 kts 138°
2026-05-05 17:02 38.80050 26.46947 24037 ft 421 kts 137°
2026-05-05 17:03 38.77857 26.49427 23898 ft 421 kts 137°
2026-05-05 17:03 38.75643 26.51925 22951 ft 428 kts 137°
2026-05-05 17:03 38.73396 26.54451 22098 ft 430 kts 137°
2026-05-05 17:03 38.71148 26.56968 21475 ft 426 kts 137°
2026-05-05 17:04 38.68931 26.59445 20914 ft 421 kts 137°
2026-05-05 17:04 38.66731 26.61898 20308 ft 417 kts 137°
2026-05-05 17:04 38.64530 26.64292 19700 ft 414 kts 142°
2026-05-05 17:04 38.62139 26.66319 19132 ft 411 kts 147°
2026-05-05 17:05 38.59714 26.68216 18532 ft 408 kts 148°
2026-05-05 17:05 38.57307 26.70099 17912 ft 404 kts 147°
2026-05-05 17:05 38.54930 26.71980 17276 ft 400 kts 147°
2026-05-05 17:05 38.52576 26.73851 16617 ft 397 kts 147°
2026-05-05 17:06 38.50246 26.75711 16013 ft 393 kts 146°
2026-05-05 17:06 38.47938 26.77552 15418 ft 390 kts 146°
2026-05-05 17:06 38.45648 26.79380 14863 ft 387 kts 146°
2026-05-05 17:06 38.43381 26.81192 14298 ft 383 kts 146°
2026-05-05 17:07 38.41124 26.82995 13736 ft 380 kts 146°
2026-05-05 17:07 38.38902 26.84766 13099 ft 376 kts 146°
2026-05-05 17:07 38.36689 26.86525 12514 ft 373 kts 146°
2026-05-05 17:07 38.34522 26.88247 12230 ft 361 kts 146°
2026-05-05 17:08 38.32426 26.89910 11999 ft 348 kts 146°
2026-05-05 17:08 38.30408 26.91513 11810 ft 336 kts 146°
2026-05-05 17:08 38.28460 26.93059 11609 ft 325 kts 146°
2026-05-05 17:08 38.26579 26.94550 11106 ft 322 kts 146°
2026-05-05 17:09 38.24659 26.96075 10477 ft 321 kts 145°
2026-05-05 17:09 38.22775 26.97570 9950 ft 316 kts 145°
2026-05-05 17:09 38.20914 26.99043 9354 ft 313 kts 146°
2026-05-05 17:09 38.19075 27.00500 8754 ft 312 kts 146°
2026-05-05 17:10 38.17252 27.01937 8300 ft 305 kts 146°
2026-05-05 17:10 38.15462 27.03352 7792 ft 301 kts 146°
2026-05-05 17:10 38.13694 27.04752 7286 ft 297 kts 146°
2026-05-05 17:10 38.11948 27.06132 6766 ft 294 kts 147°
2026-05-05 17:11 38.10220 27.07496 6296 ft 290 kts 147°
2026-05-05 17:11 38.08524 27.08828 5876 ft 282 kts 147°
2026-05-05 17:11 38.06877 27.10108 5697 ft 273 kts 147°
2026-05-05 17:11 38.05320 27.11386 5548 ft 260 kts 139°
2026-05-05 17:12 38.04307 27.13158 5321 ft 243 kts 104°
2026-05-05 17:12 38.04251 27.15184 5089 ft 223 kts 74°
2026-05-05 17:12 38.04656 27.17022 4852 ft 212 kts 70°
2026-05-05 17:12 38.05066 27.18801 4510 ft 209 kts 71°
2026-05-05 17:13 38.05519 27.20536 4171 ft 205 kts 59°
2026-05-05 17:13 38.06459 27.21850 3995 ft 202 kts 27°
2026-05-05 17:13 38.07796 27.22272 3854 ft 201 kts 356°
2026-05-05 17:13 38.09166 27.21916 3738 ft 202 kts 345°
2026-05-05 17:14 38.10517 27.21423 3616 ft 202 kts 345°
2026-05-05 17:14 38.11873 27.20965 3497 ft 201 kts 346°
2026-05-05 17:14 38.13199 27.20544 3413 ft 187 kts 346°
2026-05-05 17:14 38.14430 27.20166 3217 ft 178 kts 347°
2026-05-05 17:15 38.15617 27.19812 2966 ft 173 kts 347°
2026-05-05 17:15 38.16769 27.19469 2709 ft 168 kts 347°
2026-05-05 17:15 38.17883 27.19132 2456 ft 161 kts 347°
2026-05-05 17:15 38.18942 27.18815 2220 ft 152 kts 347°
2026-05-05 17:16 38.19965 27.18510 2040 ft 148 kts 346°
2026-05-05 17:16 38.20929 27.18217 1801 ft 140 kts 346°
2026-05-05 17:16 38.21879 27.17938 1596 ft 140 kts 346°
2026-05-05 17:16 38.22824 27.17654 1399 ft 140 kts 346°
2026-05-05 17:17 38.23770 27.17360 1208 ft 140 kts 346°
2026-05-05 17:17 38.24685 27.17067 1065 ft 135 kts 345°
2026-05-05 17:17 38.25603 27.16798 853 ft 137 kts 346°
2026-05-05 17:17 38.26537 27.16518 696 ft 138 kts 345°
2026-05-05 17:18 38.27470 27.16232 540 ft 137 kts 346°
2026-05-05 17:18 38.28375 27.15954 425 ft 125 kts 346°
2026-05-05 17:18 38.29110 27.15734 416 ft 89 kts 345°
2026-05-05 17:18 38.29514 27.15609 418 ft 42 kts 346°
2026-05-05 17:19 38.29719 27.15543 420 ft 25 kts 335°
2026-05-05 17:19 38.29807 27.15468 424 ft 15 kts 318°
2026-05-05 17:19 38.29892 27.15365 422 ft 18 kts 315°
2026-05-05 17:19 38.29969 27.15268 418 ft 9 kts 310°
2026-05-05 17:20 38.29982 27.15181 421 ft 12 kts 257°
2026-05-05 17:20 38.29961 27.15067 414 ft 14 kts 256°
2026-05-05 17:20 38.29931 27.14970 413 ft 11 kts 207°
2026-05-05 17:20 38.29857 27.14974 412 ft 8 kts 166°
2026-05-05 17:21 38.29807 27.14979 409 ft 7 kts 207°
2026-05-05 17:21 38.29782 27.14916 417 ft 9 kts 258°
2026-05-05 17:21 38.29773 27.14865 417 ft 4 kts 254°
2026-05-05 17:22 38.29773 27.14864 417 ft 0 kts 254°